[[{"header":{"parameterUnit":"m.s-1","parameterCategory":1,"la1":30.2992,"la2":30.254,"lo1":-89.0895,"lo2":-89.0443,"dy":0.0025,"dx":0.0025,"nx":19,"ny":19,"refTime":"2026-03-22T03:00:00:Z","depth":0,"parameterNumber":2,"parameterNumberName":"U-component_of_WINDS"},"data":[0,0,0,0.3465,0.3469,0.3657,0.3657,0.3877,0.3879,0,0,0,0,0,0,0,0,0,0,0,0.3394,0.3395,0.3465,0.3469,0.3657,0.3658,0.3877,0.3879,0,0,0,0,0,0,0,0,0,0,0,0.3394,0.3395,0.3396,0.347,0.3656,0.3658,0.3876,0.3743,0,0,0,0,0,0,0,0,0,0,0.3565,0.3483,0.3395,0.3396,0.3471,0.3656,0.3658,0.3737,0.3751,0.3783,0,0.3804,0,0.3844,0.3892,0.3893,0,0,0,0.3481,0.347,0.3535,0.3396,0.3473,0.3656,0.3576,0.3745,0.3761,0.3801,0.3807,0.3816,0.3848,0.3893,0.3894,0.4032,0.4032,0,0,0.3471,0.342,0.3524,0.3545,0.3511,0.3569,0.3581,0.3755,0.3759,0.3808,0.3821,0.3852,0.3894,0.3896,0.4032,0.4032,0,0,0,0.3433,0.3412,0.3473,0.3535,0.357,0.3575,0.3588,0.3751,0.3775,0.3824,0.3854,0.3896,0.3898,0.4032,0.4032,0.3987,0,0,0,0.3428,0.339,0.3468,0.3439,0.3567,0.3662,0.3579,0.3763,0.3784,0.3853,0.3896,0.39,0.4032,0.4032,0.3988,0.3975,0,0,0,0.3388,0.3386,0.3407,0.3435,0.3514,0.3661,0.3695,0.3769,0.3802,0.3893,0.39,0.4032,0.4032,0.3989,0.3977,0.3999,0,0,0,0.333,0.3363,0.3406,0.3455,0.3512,0.363,0.3695,0.3786,0.3858,0.3897,0.4032,0.4032,0.399,0.3978,0.3999,0.4009,0.4007,0,0,0.3343,0.3363,0.3396,0.344,0.3538,0.3606,0.3699,0.3813,0.3869,0.3975,0.398,0.3988,0.3977,0.3999,0.4014,0.4012,0,0,0,0.3383,0.3407,0.3444,0.351,0.3598,0.3675,0.3781,0.3824,0.3917,0.3912,0.4003,0.3997,0.4013,0.402,0.4018,0.4036,0.4032,0.4032,0.4032,0.3328,0.3399,0.346,0.3555,0.3618,0.373,0.3789,0.3868,0.3918,0.3939,0.3971,0.3972,0.3978,0.3977,0.3995,0.3981,0.398,0.398,0.398,0.3356,0.3402,0.3472,0.3557,0.3633,0.3706,0.3817,0.3852,0.3933,0.3952,0.3969,0.3984,0.3973,0.3993,0.3978,0.3978,0.3978,0.3979,0.3979,0.3329,0.3363,0.3416,0.3523,0.3598,0.3694,0.377,0.3836,0.3899,0.3916,0.3959,0.396,0.3972,0.3932,0.3932,0.3932,0.3932,0.3932,0.3932,0.328,0.3341,0.3396,0.3496,0.3551,0.363,0.3746,0.3802,0.3882,0.3924,0.3925,0.3977,0.3958,0.3953,0.3932,0.3932,0.3932,0.3932,0.3932,0.3284,0.3295,0.3379,0.3434,0.356,0.3633,0.3718,0.3827,0.3884,0.392,0.397,0.3944,0.3969,0.3971,0.3968,0.3952,0.3952,0.3952,0.3952,0.3262,0.3282,0.3386,0.347,0.356,0.3646,0.3745,0.3838,0.3935,0.3976,0.3988,0.3988,0.3987,0.4013,0.4014,0.4012,0.4008,0.4008,0.4008,0.327,0.3303,0.3372,0.3466,0.3572,0.3662,0.3759,0.3855,0.3968,0.4012,0.401,0.4007,0.401,0.4006,0.4049,0.4048,0.4046,0,0]},{"header":{"parameterUnit":"m.s-1","parameterCategory":1,"la1":30.2992,"la2":30.254,"lo1":-89.0895,"lo2":-89.0443,"dy":0.0025,"dx":0.0025,"nx":19,"ny":19,"refTime":"2026-03-22T03:00:00:Z","depth":0,"parameterNumber":3,"parameterNumberName":"V-component_of_WINDS"},"data":[0,0,0,3.9823,3.9825,3.9922,3.9922,4.0034,4.0035,0,0,0,0,0,0,0,0,0,0,0,3.9788,3.9788,3.9823,3.9825,3.9922,3.9922,4.0034,4.0035,0,0,0,0,0,0,0,0,0,0,0,3.9787,3.9788,3.9789,3.9825,3.9922,3.9922,4.0033,3.9964,0,0,0,0,0,0,0,0,0,0,3.9872,3.9833,3.9788,3.9789,3.9826,3.9921,3.9922,3.9961,3.9969,3.9985,0,4.0,0,4.0019,4.0042,4.0042,0,0,0,3.9829,3.9827,3.986,3.9789,3.9827,3.9921,3.9879,3.9965,3.9974,3.9995,4.0001,4.0006,4.0021,4.0042,4.0043,4.0136,4.0136,0,0,3.9823,3.98,3.9854,3.9865,3.9851,3.9876,3.9882,3.9971,3.9975,4.0002,4.0009,4.0023,4.0043,4.0044,4.0136,4.0136,0,0,0,3.9805,3.9796,3.9827,3.986,3.9879,3.9879,3.9886,3.9971,3.9983,4.001,4.0024,4.0044,4.0045,4.0135,4.0136,4.0131,0,0,0,3.9802,3.9786,3.9825,3.9812,3.9877,3.9926,3.9884,3.9977,3.9988,4.0024,4.0044,4.0046,4.0135,4.0136,4.013,4.0131,0,0,0,3.9783,3.9784,3.9797,3.981,3.9852,3.9925,3.9943,3.998,3.9996,4.0042,4.0046,4.0135,4.0136,4.013,4.013,4.0153,0,0,0,3.9755,3.9784,3.9796,3.9835,3.9851,3.9922,3.9942,3.9995,4.0034,4.0044,4.0135,4.0136,4.013,4.013,4.0152,4.0169,4.0174,0,0,3.9779,3.9786,3.9812,3.9825,3.989,3.9909,3.9973,4.0026,4.0048,4.0105,4.0108,4.0131,4.013,4.0153,4.0204,4.0207,0,0,0,3.9812,3.983,3.9852,3.9891,3.9936,3.9977,4.0025,4.0046,4.0097,4.0074,4.0144,4.0145,4.0159,4.0168,4.0171,4.0186,4.0139,4.0139,4.0138,3.981,3.9845,3.989,3.9938,3.9975,4.0029,4.0063,4.01,4.0116,4.0134,4.0151,4.0178,4.0188,4.019,4.0206,4.0161,4.0161,4.0161,4.0161,3.985,3.9883,3.9915,3.9971,4.0007,4.0053,4.0108,4.0121,4.0169,4.0166,4.018,4.0174,4.0193,4.0209,4.0161,4.0161,4.0161,4.0161,4.0161,3.9854,3.9876,3.9906,3.9972,4.0019,4.0065,4.0115,4.0143,4.017,4.0184,4.0209,4.0209,4.0215,4.0194,4.0194,4.0194,4.0194,4.0194,4.0194,3.9846,3.9881,3.992,3.9979,4.0012,4.0059,4.012,4.0152,4.0196,4.0213,4.0214,4.0232,4.0189,4.0178,4.0196,4.0196,4.0196,4.0195,4.0195,3.9874,3.9876,3.9936,3.997,4.0046,4.0094,4.0134,4.02,4.0231,4.0256,4.0274,4.0236,4.0243,4.0241,4.0233,4.0264,4.0264,4.0264,4.0264,3.9879,3.9888,3.9962,4.0016,4.0073,4.0118,4.0188,4.0238,4.0288,4.031,4.031,4.0302,4.0298,4.0308,4.0305,4.0298,4.0344,4.0344,4.0344,3.99,3.9919,3.9972,4.0028,4.0092,4.0146,4.0214,4.0275,4.0331,4.0348,4.0329,4.0326,4.0313,4.0306,4.0319,4.0313,4.0301,0,0]}]]